Location: �couen
(49.0206°N, 2.3831°E)
Time: 10:54:33
(UTC+00:00)

ATLAS 3B R/B - Visible Passes

Search period start: 09 December 2023 00:00
Search period end: 19 December 2023 00:00
Orbit: 954 x 1241 km, 63.8° (Epoch: 01 December)

Date Brightness Start Highest point End Pass type
(mag) Time Alt. Az. Time Alt. Az. Time Alt. Az.
09 Dec 5.2 01:54:42 14° NE 01:54:42 14° NE 01:55:46 10° NE visible
09 Dec 3.6 03:41:57 44° NNE 03:41:57 44° NNE 03:47:04 10° NE visible
09 Dec 3.8 05:29:12 25° NW 05:31:43 30° NNW 05:38:21 10° NE visible
10 Dec 4.4 02:56:16 29° NE 02:56:16 29° NE 02:59:36 10° NE visible
10 Dec 3.6 04:43:31 36° NNW 04:43:43 36° NNW 04:50:41 10° NE visible
10 Dec 4.1 06:30:47 11° NW 06:36:45 26° N 06:43:05 10° ENE visible
11 Dec 5.1 02:10:33 17° NE 02:10:33 17° NE 02:12:06 10° NE visible
11 Dec 3.7 03:57:48 38° N 03:57:48 38° N 04:03:08 10° NE visible
11 Dec 4.1 05:45:03 19° NW 05:48:36 27° N 05:54:58 10° NE visible
12 Dec 4.3 03:12:03 29° NNE 03:12:03 29° NNE 03:15:40 10° NE visible
12 Dec 3.9 04:59:18 28° NNW 05:00:30 29° NNW 05:07:03 10° NE visible
12 Dec 4.1 06:47:16 10° NW 06:53:41 28° NNE 07:00:14 10° ENE visible
13 Dec 4.9 02:26:17 19° NE 02:26:17 19° NE 02:28:12 10° NE visible
13 Dec 3.9 04:13:31 33° N 04:13:31 33° N 04:19:20 10° NE visible
13 Dec 4.2 06:00:46 15° NW 06:05:33 27° N 06:11:56 10° ENE visible
14 Dec 5.4 01:40:29 11° NE 01:40:29 11° NE 01:40:44 10° NE visible
14 Dec 4.2 03:27:44 29° NNE 03:27:44 29° NNE 03:31:46 10° NE visible
14 Dec 4.1 05:14:58 23° NNW 05:17:25 26° N 05:23:45 10° NE visible
15 Dec 4.8 02:41:55 21° NNE 02:41:55 21° NNE 02:44:16 10° NE visible
15 Dec 4.0 04:29:09 28° NNW 04:29:18 28° NNW 04:35:47 10° NE visible
15 Dec 4.2 06:16:24 12° NW 06:22:28 29° NNE 06:29:08 10° ENE visible
16 Dec 5.3 01:56:05 13° NE 01:56:05 13° NE 01:56:49 10° NE visible
16 Dec 4.2 03:43:19 28° N 03:43:19 28° N 03:48:00 10° NE visible
16 Dec 4.2 05:30:35 19° NNW 05:34:22 27° N 05:40:47 10° ENE visible
17 Dec 4.7 02:57:29 22° NNE 02:57:29 22° NNE 03:00:23 10° NE visible
17 Dec 4.1 04:44:44 25° NNW 04:46:14 26° N 04:52:34 10° NE visible
17 Dec 4.0 06:32:16 10° NW 06:39:15 36° NNE 06:46:21 10° E visible
18 Dec 5.2 02:11:39 15° NE 02:11:39 15° NE 02:12:52 10° NE visible
18 Dec 4.2 03:58:53 27° N 03:58:53 27° N 04:04:31 10° NE visible
18 Dec 4.2 05:46:08 16° NW 05:51:16 31° NNE 05:58:01 10° ENE visible
